Regional Weather Roundup
Issued by NWS Sterling, VA

Home | Current Version | Previous Version | Text Only | Print | Product List | Glossary Off
Versions: 1 2 3 4 5 6 7 8 9 10 11 12 13 14 15 16 17 18 19 20 21 22 23 24 25 26 27 28 29 30 31 32 33 34 35 36 37 38 39 40 41 42 43 44 45 46 47 48 49 50

000
ASUS41 KLWX 302210
RWRLWX

REGIONAL WEATHER ROUNDUP
NATIONAL WEATHER SERVICE BALTIMORE MD/WASHINGTON DC
500 PM EST FRI JAN 30 2015

Note: "FAIR" indicates few or no clouds below 12,000 feet
with no significant weather and/or obstructions to visibility.
 TC=TEMPERATURE CELSIUS

 * =Non NWS site. Station does not report precipitation (e.g. rain,
    snow, etc.), thunder, or fog.

DCZ001-MDZ009-015-VAZ040>042-051-053>054-302300-
WASHINGTON METRO

CITY           SKY/WX    TMP DP  RH WIND       PRES   REMARKS
WASHINGTON NAT PTCLDY    36  12  37 NW21G29   30.14R WCI  25
DULLES         FAIR      30  11  45 NW36G44   30.14R WCI  14
ANDREWS AFB    CLEAR     32  12  42 NW24G39   30.10R WCI  19
FT BELVOIR     CLEAR     33  11  40 W25G32    30.15R WCI  20
QUANTICO       CLEAR     34  11  38 NW21G29   30.17R WCI  22
COLLEGE PARK*  CLEAR     34  12  40 NW18G32   30.13R WCI  23
LEESBURG*      PTCLDY    30  16  55 NW18G31   30.18R WCI  18
MANASSAS*      CLEAR     30  16  55 NW26G35   30.15R WCI  16
GAITHERSBURG*  CLEAR     28  10  47 NW16G30   30.16R WCI  17

$$

MDZ006>007-011-014-302300-
BALTIMORE METRO

CITY           SKY/WX    TMP DP  RH WIND       PRES   REMARKS
BWI AIRPORT    PTCLDY    31  12  45 NW25G37   30.10R WCI  17
MD SCIENCE CTR   N/A     31  12  45 MISG      30.10R
ANNAPOLIS      PTCLDY    33  14  45 NW18G28   30.09R WCI  22
FORT MEADE*    CLEAR     32  14  47 NW13G25   30.13R WCI  22

$$

MDZ012-015-019>023-302300-
MARYLAND EASTERN SHORE

CITY           SKY/WX    TMP DP  RH WIND       PRES   REMARKS
OCEAN CITY     PTCLDY    36  18  48 NW16G29   30.00R WCI  26
SALISBURY      CLEAR     38  17  42 NW17G29   30.02R WCI  28
BAY BRIDGE AP*   N/A     34  14  44 NW25G35   30.08R WCI  21
CAMBRIDGE*     PTCLDY    36  16  44 NW17G33   30.05R WCI  25

$$

MDZ017>025-302300-
SOUTHERN MARYLAND

CITY           SKY/WX    TMP DP  RH WIND       PRES   REMARKS
PATUXENT RIVER PTCLDY    35  13  40 NW28G38   30.07R WCI  22
ST INIGOES     CLEAR     36  13  38 NW23G33   30.07R WCI  24
LEONARDTOWN*   PTCLDY    34  12  40 W12G23    30.10R WCI  25

$$

MDZ003>005-302300-
NORTH CENTRAL MARYLAND

CITY           SKY/WX    TMP DP  RH WIND       PRES   REMARKS
FREDERICK*     CLEAR     30   9  40 MISG      30.18R
HAGERSTOWN APT MOCLDY    25  10  53 NW30G40   30.14R WCI   8
WESTMINSTER*   CLEAR     27  10  50 NW17G28   30.09R WCI  14

$$

MDZ501>502-302300-
WESTERN MARYLAND

CITY           SKY/WX    TMP DP  RH WIND       PRES   REMARKS
OAKLAND*       CLOUDY    10  10 100 NW12G26   30.11R FOG     WCI  -4
CUMBERLAND*    MOCLDY    25  10  54 W7G26     30.30R

$$

VAZ025>031-302300-
SHENANDOAH VALLEY

CITY           SKY/WX    TMP DP  RH WIND       PRES   REMARKS
WINCHESTER*    CLOUDY    30   9  40 NW15G25   30.20R WCI  19
FRONT ROYAL*   FAIR      30  10  43 NW13G24   30.16R WCI  20
LURAY*         MOCLDY    32  14  47 NW15G23   30.19R WCI  22
NEW MARKET*    MOCLDY    28   8  43 N3G24     30.19R
STAUNTON*      MOCLDY    29   9  42 NW20      30.20R WCI  17
WAYNESBORO*    MOCLDY    27   8  43 NW16G29   30.16R WCI  15

$$

WVZ021-048>050-054>055-302300-
EASTERN WEST VIRGINIA PANHANDLE

CITY           SKY/WX    TMP DP  RH WIND       PRES   REMARKS
MARTINSBURG    MOCLDY    28   9  44 NW22G36   30.20R WCI  14
PETERSBURG*    CLOUDY    26   9  49 NW9       30.25R WCI  16

$$

VAZ036>039-050-302300-
CENTRAL FOOTHILLS

CITY           SKY/WX    TMP DP  RH WIND       PRES   REMARKS
CHARLOTTESVILL MOCLDY    33   8  35 NW13G23   30.17R WCI  24
CULPEPER*      CLEAR     34  10  37 NW8G17    30.17R WCI  27
ORANGE*        PTCLDY    34  10  37 NW15G23   30.19R WCI  24
GORDONSVILLE*  FAIR      32   9  38 NW8       30.16R WCI  25
WARRENTON*     FAIR      33  18  53 NW18G28   30.17R WCI  21

$$

VAZ055>057-302300-
NORTH AND CENTRAL PIEDMONT

CITY           SKY/WX    TMP DP  RH WIND       PRES   REMARKS
FREDERICKSBRG* PTCLDY    36  11  35 NW21G33   30.15R WCI  25
STAFFORD*      CLEAR     32   8  35 NW23      30.20R WCI  20

$$

NCZ024-NYZ072-PAZ021-071-VAZ022-071-302300-
OTHER REGIONAL OBSERVATIONS

CITY           SKY/WX    TMP DP  RH WIND       PRES   REMARKS
NEW YORK CITY  PTCLDY    35  14  42 NW13G31   29.90R WCI  26
PHILADELPHIA   FLURRIES  35  24  64 NW15G25   30.00R WCI  25
PITTSBURGH     LGT SNOW  16   8  71 NW17      30.34R WCI   0
ROANOKE        PTCLDY    31   9  39 NW14G26   30.24R WCI  21
RICHMOND       PTCLDY    39  10  30 NW20G37   30.12R
RALEIGH        PTCLDY    44  12  27 NW12G22   30.15R

$$

ANZ530>537-302300-
MARINE OBSERVATIONS

STATION/POSITION TIME  TEMP    WIND        PRES
                       AIR SEA DIR/SP/G
                 (UTC) (F)     (DEG/KT/KT) (MB)
THOMAS PT LIGHT  2200   33 36  310/ 26/ 29 1019.1R
BALT KEY BRIDGE  2200   32     280/ 26/ 33 1018.2R
COVE POINT       2200   35     330/ 19/ 27 1017.9R
LEWISETTA        2200   36 37  330/ 18/ 27 1018.8R
SOLOMONS ISLAND  2200      37                N/A
PINEY POINT      2200          330/ 32/ 36   N/A

$$




USA.gov is the U.S. government's official web portal to all federal, state and local government web resources and services.